Погода в Токареве

Россия / Смоленская область     55°19′12″N   35°06′35″E
темп.,
°C
ветер,
м/с
пор.,
м/с
влажн.,
%
обл.,
%
осадки,
мм/ч
давл.,
гПа
погр.,
м
29 июня, ср
ср2900:00+15в31064100 0.0 1022234
03:00+12в277253 0.0 1023129
06:00+13в267548 0.0 1023162
09:00+19вюв345290 0.0 1022601
12:00+22в334134 0.0 10221462
15:00+23св223299 0.0 10211767
18:00+22ссв2346100 0.0 1019734
21:00+15в22720 0.0 102016
30 июня, чт
чт3000:00+13в11760 0.0 102010
03:00+11всв11800 0.0 102010
06:00+13с1177100 0.0 102035
09:00+19с22535 0.0 1020478
12:00+22с34410 0.0 10201556
15:00+23с453735 0.0 10191765
18:00+23с25505 0.0 10191771
21:00+17сз12785 0.0 101912
1 июля, пт
пт100:00+14с34750 0.0 102054
03:00+13с227543 0.0 102029
06:00+14с36770 0.0 1021167
09:00+20ссв36600 0.0 1021673
12:00+23ссв47450 0.0 10211770
15:00+24ссв563989 0.0 10211779
18:00+22ссв354999 0.0 1021921
21:00+16св22681 0.0 102232
2 июля, сб
сб200:00+13юв22680 0.0 102312
03:00+11юз007492 0.0 102310
06:00+14ссз11725 0.0 102320
09:00+20с12515 0.0 1023406
12:00+24ссз234099 0.0 10221022
15:00+25сз334284 0.0 10211100
18:00+24сз2559100 0.0 1020447
21:00+19зсз2272100 0.0 101926
3 июля, вс
вс300:00+17зсз3478100 0.0 101968
03:00+16сз367485 0.0 101889
06:00+18сз2781100 0.0 1018172
09:00+23ссз3467100 0.0 1018348
12:00+24ссз337294 0.8 1018540
15:00+27сз245485 1.3 1017942
18:00+23зсз128599 2.3 101675
21:00+18св229694 6.4 101755